Погода Нижний Тагил

Погода Нижний Тагил : погода сейчас, прогноз погоды и архив. Всё, что Вы хотите узнать о погоде Нижний Тагил!

Хотите узнать прогноз погоды Нижний Тагил? Тогда Вам сюда: Погода Нижний Тагил

Поиск расширенной информации на нашем сайте:

Другие новости

Новости СМИ2

Главная страница сайта

Новости сайта

03.07.2017

Напоминаем, что на нашем специализированном сайте Метеоцентр.Азия вы можете получить высокодетализированные автоматические прогнозы погоды по пунктам России, СНГ и мира в авиационном формате (включающие направление и скорость ветра, видимость, явления погоды, количество и форму облачности, нижнюю и верхнюю границу облачности).


Погода Нижний Тагил - сегодня

Время (UTC), дата Ветер
(°,м/с) 
Видим.   Явления Облачность Т
(°С)
Тd
(°С)
f(%) Тe
(°С)
Pmin
(гПа)
dP
(гПа)
Po
(мм)
O2
(г/м3)
Тmin Tmax R s Состояние
почвы
09 15.10.18 320 (СЗ) 20000 м    9/9 600 м кучево-дожд. 
[Cb cap]
+2 -2.5 72 +1  1021  0.6  742  297           
12 15.10.18 тихо ()   20000 м    9/9 600 м кучево-дожд. 
[Cb cap]
+1.8 -2.1 75 +2  1021.5  0.5  742  297           
18 15.10.18 200 (Ю) 20000 м    ясно 
-2.4 -3.7 91 -2  1022.2  0.3  742  302           
21 15.10.18 210 (ЮЗ) 20000 м    4/0 средняя 
[Ac lent]
-1.2 -3.1 87 -1  1021.7  -0.6  742  301           
00 16.10.18 200 (Ю) 20000 м    10/0 средняя 
[As op]
-1.1 -2.3 92 -2  1020.4  -1.3  741  300           
03 16.10.18 190 (Ю) 10 км  слаб. снег  10/0 средняя 
[As op]
-1.1 -1.8 95 -3  1019.3  -1  740  300  -2.4    0.4    замёрзшая 
06 16.10.18 190 (Ю) 20000 м  {снег}  10/0 средняя 
[As trans]
-0.6 -1.6 93 -2  1018  -1.3  739  299           
09 16.10.18 220 (ЮЗ) 20000 м    10/4 600 м кучево-дожд., средняя 
[Cb cap|As trans]
+0.7 -0.7 90 -1  1016.3  -1.4  738  297           
12 16.10.18 230 (ЮЗ) 20000 м    10/6 600 м кучево-дожд., средняя 
[Cb cap|As trans]
+1 +0 93 -1  1015.6  -0.6  738  296           
18 16.10.18 250 (З) 20000 м    9/9 600 м кучево-дожд. 
[Cb cap]
+2 +1.4 96 +1  1012.5  -1.7  735  294           
21 16.10.18 230 (ЮЗ) 20000 м    10/10 600 м кучево-дожд. 
[Cb cap]
+2.7 +2.3 97 +2  1010.5  -1.9  734  292           
00 17.10.18 230 (ЮЗ) 20000 м    10/10 600 м кучево-дожд. 
[Cb cap]
+4.1 +3.6 97 +2  1007.2  -3  732  290           
03 17.10.18 240 (ЮЗ) 20000 м    10/10 600 м кучево-дожд. 
[Cb cap]
+5.8 +4.9 94 +4  1002.8  -4  729  287  +1.3        влажная 
21 17.10.18 300 (СЗ) 5{10}  20000 м    10/10 600 м кучево-дожд. 
[Cb cap]
+3 +1.2 88 +1  1009.8  0.3  734  292           
03 18.10.18 320 (СЗ) 4{14}  20000 м    10/10 600 м кучево-дожд. 
[Cb cap]
+1.3 +0.4 94 -1  1012.8  1.8  736  295  +1.3        влажная 
09 18.10.18 320 (СЗ) 20000 м  {ливн. осадки}  6/6 600 м кучево-дожд. 
[Cb cap]
+3.9 -0.9 71 +2  1014.5  0.2  737  293           
18 18.10.18 250 (З) 20000 м    9/9 600 м 
[Sc]
+0.2 -1 92 -1  1014.9  -1  737  297           
21 18.10.18 210 (ЮЗ) 20000 м    10/10 600 м кучево-дожд. 
[Cb cap]
+0.4 -0.4 94 1013.1  -1.8  736  296           
00 19.10.18 180 (Ю) 20000 м  {ливн. осадки}  10/10 600 м кучево-дожд. 
[Cb cap]
+1.2 +1 99 +1  1010.4  -2.5  734  294           
03 19.10.18 230 (ЮЗ) 4000 м  дымка  10/4 600 м кучево-дожд., средняя 
[Cb cap|As op]
+2.4 +2.2 99 +3  1008.8  -1.4  733  292  -0.3    0.0    влажная 
06 19.10.18 240 (ЮЗ) 20000 м  {ливн. осадки}  10/8 600 м кучево-дожд., средняя 
[Cb cap|As op]
+3.9 +3.6 98 +3  1008.2  -0.4  732  290           
09 19.10.18 250 (З) 20000 м    10/10 600 м кучево-дожд. 
[Cb cap]
+6.2 +5.2 93 +6  1008.2  0.3  733  288           
12 19.10.18 240 (ЮЗ) 20000 м    10/0 кучево-дожд. 
[Cb cap]
+6.5 +5.6 94 +6  1008.3  0.2  733  287           
18 19.10.18 240 (ЮЗ) 5{11}  20000 м    10/8 600 м кучево-дожд., средняя 
[Cb cap|As op]
+7.4 +5.4 87 +6  1005.5  -0.9  731  286           
21 19.10.18 240 (ЮЗ) 4{10}  20000 м    10/0 средняя 
[As op]
+7.7 +6.6 93 +6  1004  -1.4  730  285           
Время (UTC), дата Ветер
(°,м/с) 
Видим.   Явления Облачность Т
(°С)
Тd
(°С)
f(%) Тe
(°С)
Pmin
(гПа)
dP
(гПа)
Po
(мм)
O2
(г/м3)
Тmin Tmax R s Состояние
почвы

Для получения пояснительной информации подведите курсор к названию столбца.

ПОГОДА Нижний Тагил - архив

Всё, что Вы хотите узнать о погоде Нижний Тагил - удобно и подробно!

Выберите нужную дату (начиная с 1 января 2015* года) и нажмите кнопку "Найти".
Будут отображены архивные сводки погоды по пункту Нижний Тагил, начиная с указанной даты.


Отображать данные в формате CSV (для использования в таблицах Excel)


Внимание! Наш архив погоды предназначен исключительно для личного некоммерческого использования в познавательных целях. Если Вам необходимы официальные справки о состоянии погоды (для производственных, юридических, коммерческих и т.п. целей), обращайтесь в органы Росгидромета.

*Примечание: данная дата относится к архиву по метеостанциям СССР (Россия, СНГ, Балтия).
Архив по метеостанциям Зарубежной Европы и Азии (кроме Китая) хранится 10 дней, по другим регионам земного шара (Китай, Африка, Америка, Австралия, Океания) - 1 день.

Нижний Тагил - район местоположения метеостанции


Название, широта, долгота, высота метеостанции:
Нижний Тагил 57.9°ш. 60.1°д. 260 м над ур. моря [Российская Федерация]

Дополнительная информация

В oтличие oт бoльшинства пoгoдных сайтoв мы публикуем пoдрoбную метеoинфoрмацию в детальнoм прoфессиoнальнoм фoрмате.

Характеристики температуры и влажнoсти вoздуха измеряются на высoте 2 м в тени вдали oт зданий и деревьев.
Скoрoсть ветра измеряется на высoте 10 м (на урoвне рoста челoвека скoрoсть ветра ниже в 1.5-2 раза). Если метеoстанция нахoдится в гoрoде или в лесу, тo скoрoсть ветра занижена на 2-4 м/с пo сравнению с oткрытым местoм. Скoрoсть ветра над акватoриями крупных рек и oзёр, а также на вершинах хoлмoв на 2-5 м/с выше, чем в oбычных услoвиях.
Атмoсфернoе давление в разных тoчках местнoсти мoжет значительнo oтличаться oт давления на метеoстанции, в зависимoсти oт услoвий рельефа (при пoдъёме на 10 м давление пoнижается примернo на 1 мм рт.ст.).